Showing default

YAM-10, 64580

Orbit data source: Space-Track

YAM-10, 64580 is an American payload satellite in SSO that was launched on Mon, 23 Jun 2025 UTC via an FALCON 9 launch vehicle from the Air Force Western Test Range (AFWTR). Payload-class satellites include a variety of spacecraft equipped with specific instruments for various scientific and technological missions. These include communications satellites like Starlink; space stations such as the ISS; scientific satellites like the Hubble; Earth observation satellites from companies like Planet Labs, Umbra, and HawkEye 360; GPS; miniature CubeSats for education and research; and military/defense satellites.

Loading next visibility...
Identifier
64580, 2025-135BE
Orbit
SSO
Country
Flag of USUS
Related business
Manufacturer
Airbus/Toulouse
Mission
Operational Commercial Technology
Bus & Motor
ARROW, Unknown motor
Mass
~150 kg wet, ~140 kg dry
Launch date (UTC)
2025-06-23 (4 months ago)
Launch vehicle
FALCON 9
Launch site
Air Force Western Test Range (AFWTR)
Object type
Payload
Rocket body
Debris
Shape & HBR
Trap Box + 2 Pan, 2.3 m
Radar Cross Section
2.032 m², Large (>1 m²)

Expand to show TLE details & history
Last TLE update: 10 hours ago

TLE from 10 hours ago
0 YAM-10
1 64580U 25135BE  25293.85217666  .00005057  00000-0  50062-3 0  9994
2 64580  97.7568  46.2725 0004560  79.5593 280.6140 14.92281535 18174
Epoch: 2025-10-20T20:27Z
TLE epoch observation values (Epoch: 2025-10-20T20:27:08.063Z)
Latitude
Longitude
69.94036°
Altitude
593.282 km
Speed
7.564 km/s
True Right ascension
03h 05m 05s
True Declination
0° 00' 00"
Sunlit
Object was in full shadow at epoch
Visualization orbit readout
Latitude
Unknown
Longitude
Unknown
Altitude
Unknown
Speed
Unknown
Apparent Right ascension
Unknown
Apparent Declination
Unknown
Sunlit
N/A
Visualization observer readout
Local Sidereal Time
01:26:42
Azimuth
Unknown
Elevation
Unknown
Doppler factor
Unknown
Orbital elements
Apogee altitude
591.018 km
Perigee altitude
584.665 km
Semi-major axis
6,965.978 km
Eccentricity
0.00046
Inclination
97.7568°
RAAN
46.2725°
Arg. of periapsis
79.5593°
True anomaly
280.56263°
Mean anomaly
280.614°
Eccentric anomaly
280.58832°
Mean motion
3.7331 °/min
Orbital period
96.43 mins
BSTAR
0.00050062
Loading maneuver chart data...
Computing Atmospheric mass density...
Loading historical data...
Loading historical data...
Loading historical data...
Loading historical data...
Loading historical data...
Loading historical data...
Loading historical data...

Documentation

Showing up to 5 results
|